Time[GMT],salinity[psu](50m),sigma_t[kg/m^3](50m),conductivity[msiemens/cm](50m),temperature[C](50m),pressure[decibars](50m)
2018-03-24 19:00,32.218,25.572,30.239,4.01,50.04
2018-03-24 20:00,32.276,25.632,30.174,3.88,50.33
2018-03-24 21:00,32.267,25.627,30.150,3.86,49.90
2018-03-24 22:00,32.210,25.584,30.076,3.83,50.00
2018-03-24 23:00,32.265,25.622,30.173,3.89,49.77
2018-03-25 00:00,32.287,25.632,30.257,3.96,48.89
2018-03-25 01:00,32.274,25.621,30.257,3.98,47.52
2018-03-25 02:00,32.277,25.622,30.265,3.98,49.15
2018-03-25 03:00,32.274,25.619,30.268,3.99,47.97
2018-03-25 04:00,32.272,25.616,30.274,4.00,49.98
2018-03-25 05:00,32.276,25.620,30.275,4.00,48.67
2018-03-25 06:00,32.254,25.598,30.296,4.05,49.17
2018-03-25 07:00,32.250,25.596,30.285,4.04,48.87
2018-03-25 08:00,32.257,25.604,30.272,4.01,48.96
2018-03-25 09:00,32.237,25.590,30.234,3.99,49.15
2018-03-25 10:00,32.250,25.596,30.286,4.04,49.80
2018-03-25 11:00,32.258,25.602,30.290,4.03,47.69
2018-03-25 12:00,32.249,25.592,30.315,4.07,47.88
2018-03-25 13:00,32.268,25.600,30.386,4.14,48.71
2018-03-25 14:00,32.270,25.602,30.377,4.13,48.56
2018-03-25 15:00,32.286,25.617,30.384,4.12,48.58
2018-03-25 16:00,32.285,25.619,30.352,4.08,49.23
2018-03-25 17:00,32.293,25.626,30.358,4.08,49.40
2018-03-25 18:00,32.292,25.623,30.377,4.10,50.20
2018-03-25 19:00,32.292,25.622,30.376,4.10,49.90
2018-03-25 20:00,32.285,25.615,30.390,4.13,49.11
2018-03-25 21:00,32.262,25.595,30.384,4.14,49.53
2018-03-25 22:00,32.283,25.620,30.325,4.05,51.06
2018-03-25 23:00,32.292,25.629,30.323,4.04,49.93
2018-03-26 00:00,32.297,25.635,30.306,4.01,50.03
2018-03-26 01:00,32.290,25.623,30.354,4.08,48.26
2018-03-26 02:00,32.301,25.629,30.390,4.11,49.12
2018-03-26 03:00,32.309,25.631,30.435,4.15,49.45
2018-03-26 04:00,32.293,25.619,30.415,4.15,48.60
2018-03-26 05:00,32.325,25.644,30.446,4.15,49.76
2018-03-26 06:00,32.305,25.627,30.430,4.15,49.62
2018-03-26 07:00,32.306,25.627,30.441,4.17,49.26
2018-03-26 08:00,32.303,25.626,30.436,4.16,49.80
2018-03-26 09:00,32.289,25.615,30.419,4.16,49.84
2018-03-26 10:00,32.206,25.551,30.325,4.13,49.63
2018-03-26 11:00,32.200,25.547,30.319,4.13,48.93
2018-03-26 12:00,32.208,25.554,30.322,4.12,49.42
2018-03-26 13:00,32.219,25.561,30.343,4.14,49.54
2018-03-26 14:00,32.329,25.660,30.342,4.02,48.66
2018-03-26 15:00,32.319,25.645,30.393,4.09,49.29
2018-03-26 16:00,32.298,25.625,30.400,4.12,49.54
2018-03-26 17:00,32.255,25.588,30.391,4.16,50.31
2018-03-26 18:00,32.318,25.637,30.456,4.17,50.56
2018-03-26 19:00,32.257,25.588,30.406,4.17,50.35
2018-03-26 20:00,32.302,25.622,30.458,4.19,49.95
2018-03-26 21:00,32.280,25.603,30.455,4.21,49.82
2018-03-26 22:00,32.267,25.592,30.444,4.21,50.89
2018-03-26 23:00,32.270,25.594,30.453,4.22,50.56
2018-03-27 00:00,32.260,25.586,30.446,4.22,50.67
2018-03-27 01:00,32.240,25.575,30.383,4.16,50.07
2018-03-27 02:00,32.267,25.597,30.407,4.16,50.20
2018-03-27 03:00,32.271,25.599,30.420,4.18,50.18
2018-03-27 04:00,32.289,25.614,30.422,4.16,49.58
2018-03-27 05:00,32.285,25.617,30.373,4.10,50.83
2018-03-27 06:00,32.295,25.630,30.331,4.05,50.17
2018-03-27 07:00,32.290,25.624,30.352,4.07,50.27
2018-03-27 08:00,32.319,25.666,30.215,3.88,50.25
2018-03-27 09:00,32.295,25.625,30.380,4.10,50.74
2018-03-27 10:00,32.278,25.605,30.417,4.16,50.71
2018-03-27 11:00,32.312,25.646,30.335,4.03,50.49
2018-03-27 12:00,32.311,25.643,30.345,4.05,49.83
2018-03-27 13:00,32.304,25.638,30.340,4.05,49.30
2018-03-27 14:00,32.315,25.669,30.156,3.82,48.97
2018-03-27 15:00,32.306,25.681,29.978,3.61,48.94
2018-03-27 16:00,32.296,25.699,29.722,3.31,49.55
2018-03-27 17:00,32.290,25.693,29.734,3.33,49.59
2018-03-27 18:00,32.302,25.685,29.913,3.54,50.64
2018-03-27 19:00,32.305,25.690,29.890,3.51,50.29
2018-03-27 20:00,32.305,25.690,29.879,3.49,51.00
2018-03-27 21:00,32.290,25.698,29.692,3.28,50.68
2018-03-27 22:00,32.296,25.685,29.854,3.47,50.57
2018-03-27 23:00,32.302,25.686,29.895,3.52,50.34
2018-03-28 00:00,32.287,25.687,29.769,3.38,50.99
2018-03-28 01:00,32.301,25.692,29.837,3.45,50.04
2018-03-28 02:00,32.308,25.687,29.940,3.56,49.09
2018-03-28 03:00,32.323,25.683,30.090,3.73,49.32
2018-03-28 04:00,32.326,25.682,30.125,3.77,48.20
2018-03-28 05:00,32.338,25.687,30.176,3.82,49.09
2018-03-28 06:00,32.324,25.684,30.095,3.73,49.95
2018-03-28 07:00,32.306,25.679,29.992,3.63,49.69
2018-03-28 08:00,32.319,25.684,30.051,3.69,50.46
2018-03-28 09:00,32.331,25.687,30.119,3.76,49.68
2018-03-28 10:00,32.320,25.686,30.048,3.68,50.43
2018-03-28 11:00,32.314,25.686,29.997,3.63,49.92
2018-03-28 12:00,32.310,25.685,29.972,3.60,49.31
2018-03-28 13:00,32.321,25.689,30.031,3.66,50.95
2018-03-28 14:00,32.317,25.684,30.038,3.67,50.34
2018-03-28 15:00,32.323,25.684,30.084,3.72,50.48
2018-03-28 16:00,32.315,25.674,30.109,3.76,49.55
2018-03-28 17:00,32.305,25.644,30.293,3.99,50.30
2018-03-28 18:00,32.318,25.662,30.234,3.91,49.69
2018-03-28 19:00,32.322,25.666,30.239,3.91,49.53
2018-03-28 20:00,32.326,25.675,30.192,3.85,49.98
2018-03-28 21:00,32.350,25.684,30.296,3.95,50.22
2018-03-28 22:00,32.353,25.685,30.305,3.95,50.27
2018-03-28 23:00,32.342,25.683,30.242,3.89,49.95
2018-03-29 00:00,32.332,25.679,30.202,3.85,50.72
2018-03-29 01:00,32.332,25.680,30.190,3.84,49.61
2018-03-29 02:00,32.352,25.680,30.345,4.00,49.80
2018-03-29 03:00,32.344,25.682,30.268,3.92,49.37
2018-03-29 04:00,32.344,25.681,30.279,3.93,49.71
2018-03-29 05:00,32.328,25.677,30.189,3.84,49.92
2018-03-29 06:00,32.338,25.682,30.226,3.88,49.97
2018-03-29 07:00,32.351,25.674,30.386,4.05,50.29
2018-03-29 08:00,32.344,25.666,30.402,4.08,50.38
2018-03-29 09:00,32.350,25.670,30.411,4.08,50.61
2018-03-29 10:00,32.355,25.675,30.410,4.08,50.47
2018-03-29 11:00,32.344,25.665,30.413,4.09,50.57
2018-03-29 12:00,32.354,25.674,30.407,4.08,50.10
2018-03-29 13:00,32.353,25.672,30.413,4.08,50.60
2018-03-29 14:00,32.341,25.661,30.419,4.10,50.48
2018-03-29 15:00,32.336,25.664,30.360,4.04,50.30
2018-03-29 16:00,32.342,25.672,30.342,4.01,50.52
2018-03-29 17:00,32.334,25.654,30.425,4.12,50.13
2018-03-29 18:00,32.329,25.640,30.506,4.22,50.31
2018-03-29 19:00,32.336,25.648,30.493,4.20,50.35
2018-03-29 20:00,32.338,25.648,30.509,4.21,50.35
2018-03-29 21:00,32.358,25.663,30.532,4.22,50.44
2018-03-29 22:00,32.376,25.677,30.551,4.22,50.17
2018-03-29 23:00,32.387,25.681,30.594,4.27,49.90
2018-03-30 00:00,32.341,25.647,30.536,4.24,49.90
2018-03-30 01:00,32.372,25.671,30.575,4.26,50.10
2018-03-30 02:00,32.381,25.675,30.601,4.28,50.57
2018-03-30 03:00,32.403,25.691,30.642,4.31,50.46
2018-03-30 04:00,32.364,25.664,30.567,4.26,50.03
2018-03-30 05:00,32.375,25.671,30.593,4.28,50.45
2018-03-30 06:00,32.343,25.649,30.542,4.25,50.16
2018-03-30 07:00,32.344,25.653,30.505,4.20,49.88
2018-03-30 08:00,32.338,25.648,30.505,4.21,49.85
2018-03-30 09:00,32.340,25.651,30.497,4.20,49.90
2018-03-30 10:00,32.339,25.652,30.482,4.18,49.36
2018-03-30 11:00,32.341,25.657,30.453,4.14,49.64
2018-03-30 12:00,32.349,25.662,30.474,4.16,48.51
2018-03-30 13:00,32.345,25.660,30.462,4.15,49.57
2018-03-30 14:00,32.353,25.666,30.471,4.15,49.92
2018-03-30 15:00,32.367,25.675,30.503,4.18,50.15
2018-03-30 16:00,32.360,25.671,30.487,4.16,50.32
2018-03-30 17:00,32.336,25.647,30.502,4.21,49.70
2018-03-30 18:00,32.338,25.651,30.479,4.18,50.57
2018-03-30 19:00,32.341,25.654,30.477,4.17,49.92
2018-03-30 20:00,32.348,25.666,30.433,4.11,49.75
2018-03-30 21:00,32.342,25.666,30.388,4.07,50.76
2018-03-30 22:00,32.337,25.650,30.487,4.19,49.86
2018-03-30 23:00,32.340,25.653,30.481,4.18,50.73
2018-03-31 00:00,32.338,25.651,30.484,4.18,49.92
2018-03-31 01:00,32.347,25.657,30.498,4.19,50.64
2018-03-31 02:00,32.338,25.653,30.468,4.16,50.52
2018-03-31 03:00,32.340,25.655,30.463,4.16,50.61
2018-03-31 04:00,32.333,25.648,30.474,4.18,49.93
2018-03-31 05:00,32.334,25.648,30.486,4.19,49.21
2018-03-31 06:00,32.340,25.653,30.478,4.17,49.40
2018-03-31 07:00,32.332,25.640,30.536,4.25,49.47
2018-03-31 08:00,32.335,25.668,30.315,3.98,49.89
2018-03-31 09:00,32.339,25.672,30.310,3.98,49.57
2018-03-31 10:00,32.336,25.669,30.314,3.98,49.79
2018-03-31 11:00,32.321,25.621,30.605,4.35,49.74
2018-03-31 12:00,32.321,25.626,30.563,4.30,49.47
2018-03-31 13:00,32.340,25.655,30.466,4.16,49.59
2018-03-31 14:00,32.335,25.647,30.492,4.20,50.40
2018-03-31 15:00,32.341,25.655,30.477,4.17,50.10
2018-03-31 16:00,32.335,25.648,30.484,4.19,50.12
2018-03-31 17:00,32.345,25.660,30.462,4.15,49.30
2018-03-31 18:00,32.329,25.636,30.539,4.26,49.63
2018-03-31 19:00,32.331,25.657,30.380,4.07,49.64
2018-03-31 20:00,32.328,25.667,30.277,3.95,49.85
2018-03-31 21:00,32.347,25.670,30.389,4.06,50.14
2018-03-31 22:00,32.348,25.671,30.390,4.06,49.82
2018-03-31 23:00,32.332,25.648,30.467,4.17,49.04
2018-04-01 00:00,32.333,25.649,30.465,4.17,49.25
2018-04-01 01:00,32.319,25.624,30.569,4.30,48.62
2018-04-01 02:00,32.327,25.642,30.481,4.19,48.63
2018-04-01 03:00,32.335,25.662,30.367,4.05,48.67
2018-04-01 04:00,32.335,25.648,30.487,4.19,49.00
2018-04-01 05:00,32.325,25.628,30.580,4.31,49.46
2018-04-01 06:00,32.332,25.661,30.359,4.04,49.86
2018-04-01 07:00,32.336,25.654,30.441,4.13,49.80
2018-04-01 08:00,32.333,25.644,30.511,4.22,50.44
2018-04-01 09:00,32.337,25.653,30.458,4.15,48.70
2018-04-01 10:00,32.337,25.656,30.429,4.12,47.14
2018-04-01 11:00,32.333,25.649,30.461,4.16,47.12
2018-04-01 12:00,32.325,25.635,30.519,4.24,46.45
2018-04-01 13:00,32.328,25.630,30.586,4.32,47.46
2018-04-01 14:00,32.324,25.627,30.580,4.31,48.47
2018-04-01 15:00,32.340,25.656,30.462,4.16,48.11
2018-04-01 16:00,32.331,25.642,30.506,4.22,48.54
2018-04-01 17:00,32.329,25.633,30.565,4.29,48.98
2018-04-01 18:00,32.331,25.636,30.556,4.28,49.98
2018-04-01 19:00,32.331,25.637,30.552,4.27,49.80
2018-04-01 20:00,32.335,25.643,30.522,4.23,50.13
2018-04-01 21:00,32.335,25.648,30.482,4.18,49.64
2018-04-01 22:00,32.337,25.650,30.481,4.18,50.59
2018-04-01 23:00,32.337,25.650,30.480,4.18,49.55
2018-04-02 00:00,32.335,25.651,30.461,4.16,49.34
2018-04-02 01:00,32.336,25.646,30.507,4.21,48.98
2018-04-02 02:00,32.337,25.648,30.499,4.20,49.49
2018-04-02 03:00,32.342,25.650,30.527,4.23,50.10
2018-04-02 04:00,32.337,25.643,30.549,4.26,49.99
2018-04-02 05:00,32.337,25.642,30.545,4.26,49.60
2018-04-02 06:00,32.335,25.642,30.534,4.25,49.30
2018-04-02 07:00,32.337,25.646,30.519,4.23,49.54
2018-04-02 08:00,32.336,25.653,30.452,4.15,49.98
2018-04-02 09:00,32.337,25.659,30.405,4.09,50.21
2018-04-02 10:00,32.337,25.659,30.409,4.09,50.51
2018-04-02 11:00,32.337,25.661,30.391,4.07,50.37
2018-04-02 12:00,32.334,25.660,30.376,4.06,50.51
2018-04-02 13:00,32.338,25.657,30.427,4.12,50.41
2018-04-02 14:00,32.336,25.652,30.458,4.16,50.35
2018-04-02 15:00,32.339,25.650,30.500,4.20,50.17
2018-04-02 16:00,32.339,25.650,30.495,4.20,50.63
2018-04-02 17:00,32.337,25.646,30.517,4.22,50.43
2018-04-02 18:00,32.339,25.648,30.513,4.22,50.01
2018-04-02 19:00,32.337,25.650,30.485,4.19,50.34
2018-04-02 20:00,32.335,25.653,30.443,4.14,50.23
2018-04-02 21:00,32.334,25.655,30.418,4.11,50.49
2018-04-02 22:00,32.331,25.656,30.387,4.07,50.01
2018-04-02 23:00,32.335,25.659,30.390,4.07,50.13
2018-04-03 00:00,32.333,25.658,30.381,4.07,50.01
2018-04-03 01:00,32.336,25.659,30.397,4.08,49.79
2018-04-03 02:00,32.335,25.657,30.415,4.10,49.90
2018-04-03 03:00,32.336,25.652,30.461,4.16,49.79
2018-04-03 04:00,32.336,25.645,30.517,4.23,50.00
2018-04-03 05:00,32.337,25.645,30.524,4.23,50.27
2018-04-03 06:00,32.338,25.648,30.512,4.22,50.37
2018-04-03 07:00,32.337,25.650,30.485,4.19,50.45
2018-04-03 08:00,32.331,25.651,30.436,4.13,49.87
2018-04-03 09:00,32.332,25.653,30.418,4.11,49.88
2018-04-03 10:00,32.335,25.659,30.393,4.08,50.15
2018-04-03 11:00,32.334,25.658,30.391,4.08,50.52
2018-04-03 12:00,32.329,25.656,30.370,4.06,50.36
2018-04-03 13:00,32.337,25.660,30.402,4.09,50.17
2018-04-03 14:00,32.336,25.659,30.407,4.09,49.91
2018-04-03 15:00,32.332,25.653,30.424,4.12,49.48
2018-04-03 16:00,32.332,25.652,30.436,4.13,49.77
2018-04-03 17:00,32.334,25.652,30.449,4.15,49.63
2018-04-03 18:00,32.333,25.652,30.440,4.14,49.86
2018-04-03 19:00,32.332,25.652,30.432,4.13,50.11
2018-04-03 20:00,32.338,25.656,30.442,4.13,50.66
2018-04-03 21:00,32.334,25.657,30.408,4.10,50.51
2018-04-03 22:00,32.333,25.656,30.404,4.09,50.13
2018-04-03 23:00,32.337,25.663,30.374,4.05,49.93
2018-04-04 00:00,32.330,25.659,30.361,4.04,49.68
2018-04-04 01:00,32.339,25.660,30.416,4.10,49.47
2018-04-04 02:00,32.338,25.659,30.421,4.11,50.40
2018-04-04 03:00,32.330,25.650,30.428,4.13,50.03
2018-04-04 04:00,32.336,25.658,30.416,4.10,50.01
2018-04-04 05:00,32.334,25.653,30.435,4.13,50.10
2018-04-04 06:00,32.336,25.655,30.434,4.13,49.82
2018-04-04 07:00,32.336,25.656,30.427,4.12,48.81
2018-04-04 08:00,32.336,25.658,30.410,4.10,49.85
2018-04-04 09:00,32.323,25.646,30.415,4.12,49.33
2018-04-04 10:00,32.318,25.650,30.340,4.03,49.70
2018-04-04 11:00,32.322,25.663,30.264,3.94,50.21
2018-04-04 12:00,32.320,25.662,30.250,3.92,49.28
2018-04-04 13:00,32.315,25.656,30.269,3.95,49.65
2018-04-04 14:00,32.315,25.657,30.257,3.94,49.17
2018-04-04 15:00,32.323,25.662,30.278,3.95,49.74
2018-04-04 16:00,32.323,25.663,30.266,3.94,49.61
2018-04-04 17:00,32.322,25.663,30.257,3.93,49.87
2018-04-04 18:00,32.319,25.659,30.275,3.95,50.05
2018-04-04 19:00,32.323,25.662,30.273,3.95,50.40
2018-04-04 20:00,32.319,25.657,30.294,3.98,50.75
2018-04-04 21:00,32.324,25.658,30.315,4.00,49.81
2018-04-04 22:00,32.333,25.664,30.340,4.02,49.84
2018-04-04 23:00,32.339,25.665,30.372,4.05,50.60
2018-04-05 00:00,32.339,25.658,30.431,4.12,49.73
2018-04-05 01:00,32.337,25.659,30.405,4.09,49.76
2018-04-05 02:00,32.341,25.658,30.441,4.13,49.95
2018-04-05 03:00,32.336,25.660,30.396,4.08,50.87
2018-04-05 04:00,32.336,25.663,30.370,4.05,48.83
2018-04-05 05:00,32.330,25.661,30.341,4.02,49.21
2018-04-05 06:00,32.330,25.661,30.338,4.02,48.20
2018-04-05 07:00,32.329,25.660,30.338,4.02,47.08
2018-04-05 08:00,32.331,25.660,30.356,4.04,47.50
2018-04-05 09:00,32.322,25.645,30.416,4.12,48.52
2018-04-05 10:00,32.336,25.649,30.485,4.19,47.94
2018-04-05 11:00,32.345,25.658,30.478,4.17,48.23
2018-04-05 12:00,32.329,25.645,30.459,4.16,48.21
2018-04-05 13:00,32.318,25.645,30.385,4.09,48.00
2018-04-05 14:00,32.323,25.646,30.410,4.11,50.21
2018-04-05 15:00,32.322,25.648,30.392,4.09,47.96
2018-04-05 16:00,32.331,25.649,30.452,4.15,48.65
2018-04-05 17:00,32.334,25.650,30.466,4.17,48.92
2018-04-05 18:00,32.336,25.652,30.457,4.15,49.42
2018-04-05 19:00,32.334,25.651,30.459,4.16,48.64
2018-04-05 20:00,32.333,25.649,30.463,4.16,49.19
2018-04-05 21:00,32.333,25.649,30.460,4.16,48.79
2018-04-05 22:00,32.322,25.645,30.414,4.12,47.94
2018-04-05 23:00,32.315,25.645,30.361,4.06,48.75
2018-04-06 00:00,32.319,25.645,30.388,4.09,49.51
2018-04-06 01:00,32.320,25.646,30.396,4.10,49.11
2018-04-06 02:00,32.315,25.645,30.356,4.05,49.14
2018-04-06 03:00,32.317,25.646,30.369,4.07,49.08
2018-04-06 04:00,32.316,25.650,30.325,4.02,49.22
2018-04-06 05:00,32.317,25.650,30.331,4.02,49.17
2018-04-06 06:00,32.319,25.650,30.348,4.04,49.56
2018-04-06 07:00,32.315,25.649,30.324,4.02,49.24
2018-04-06 08:00,32.319,25.650,30.354,4.05,49.26
2018-04-06 09:00,32.310,25.648,30.298,3.99,49.24
2018-04-06 10:00,32.293,25.637,30.260,3.96,49.69
2018-04-06 11:00,32.303,25.645,30.271,3.96,50.10
2018-04-06 12:00,32.304,25.645,30.276,3.97,50.07
2018-04-06 13:00,32.301,25.644,30.259,3.95,50.34
2018-04-06 14:00,32.305,25.645,30.280,3.97,50.21
2018-04-06 15:00,32.300,25.642,30.270,3.97,49.46
2018-04-06 16:00,32.286,25.635,30.226,3.93,48.81
2018-04-06 17:00,32.284,25.633,30.224,3.93,48.27
2018-04-06 18:00,32.275,25.629,30.192,3.90,48.67
2018-04-06 19:00,32.285,25.632,30.243,3.95,49.52
2018-04-06 20:00,32.282,25.631,30.225,3.93,48.66
2018-04-06 21:00,32.282,25.629,30.245,3.96,49.69
2018-04-06 22:00,32.283,25.628,30.257,3.97,49.98
2018-04-06 23:00,32.283,25.628,30.262,3.97,49.39
2018-04-07 00:00,32.296,25.629,30.350,4.07,49.08
2018-04-07 01:00,32.295,25.633,30.313,4.02,49.94
2018-04-07 02:00,32.295,25.630,30.339,4.05,49.50
2018-04-07 03:00,32.292,25.629,30.328,4.04,49.56
2018-04-07 04:00,32.294,25.631,30.319,4.03,49.88
2018-04-07 05:00,32.295,25.632,30.316,4.03,49.43
2018-04-07 06:00,32.301,25.636,30.333,4.04,48.57
2018-04-07 07:00,32.302,25.637,30.336,4.04,49.80
2018-04-07 08:00,32.302,25.636,30.341,4.05,49.51
2018-04-07 09:00,32.302,25.638,30.321,4.03,49.05
2018-04-07 10:00,32.303,25.638,30.328,4.03,50.43
2018-04-07 11:00,32.301,25.636,30.335,4.04,49.55
2018-04-07 12:00,32.301,25.636,30.328,4.04,49.90
2018-04-07 13:00,32.304,25.637,30.343,4.05,50.06
2018-04-07 14:00,32.305,25.637,30.352,4.06,49.86
2018-04-07 15:00,32.299,25.632,30.347,4.06,49.51
2018-04-07 16:00,32.303,25.635,30.352,4.06,49.09
2018-04-07 17:00,32.304,25.636,30.360,4.07,48.80
2018-04-07 18:00,32.304,25.635,30.361,4.07,48.57
2018-04-07 19:00,32.308,25.637,30.372,4.08,49.92
2018-04-07 20:00,32.309,25.638,30.371,4.08,49.72
2018-04-07 21:00,32.310,25.638,30.378,4.09,50.05
2018-04-07 22:00,32.312,25.639,30.383,4.09,48.98
2018-04-07 23:00,32.307,25.637,30.370,4.08,49.68
2018-04-08 00:00,32.309,25.638,30.376,4.08,50.85
2018-04-08 01:00,32.310,25.639,30.377,4.08,49.99
2018-04-08 02:00,32.306,25.636,30.364,4.07,49.99
2018-04-08 03:00,32.334,25.651,30.453,4.15,50.32
2018-04-08 04:00,32.307,25.637,30.367,4.08,50.33
2018-04-08 05:00,32.315,25.640,30.399,4.11,50.56
2018-04-08 06:00,32.314,25.641,30.390,4.10,50.59
2018-04-08 07:00,32.319,25.643,30.410,4.11,49.84
2018-04-08 08:00,32.316,25.642,30.391,4.09,50.88
2018-04-08 09:00,32.372,25.667,30.606,4.29,49.83
2018-04-08 10:00,32.319,25.644,30.400,4.10,49.46
2018-04-08 11:00,32.313,25.640,30.388,4.09,49.35
2018-04-08 12:00,32.314,25.640,30.398,4.11,49.55
2018-04-08 13:00,32.309,25.639,30.368,4.07,49.54
2018-04-08 14:00,32.304,25.636,30.354,4.06,49.46
2018-04-08 15:00,32.285,25.625,30.302,4.02,49.70
2018-04-08 16:00,32.329,25.646,30.455,4.16,50.16
2018-04-08 17:00,32.308,25.638,30.365,4.07,50.15
2018-04-08 18:00,32.310,25.640,30.371,4.08,49.53
2018-04-08 19:00,32.296,25.636,30.292,4.00,49.82
2018-04-08 20:00,32.314,25.641,30.388,4.09,50.24
2018-04-08 21:00,32.303,25.639,30.319,4.02,50.34
2018-04-08 22:00,32.308,25.640,30.350,4.05,50.02
2018-04-08 23:00,32.302,25.639,30.308,4.01,50.08
2018-04-09 00:00,32.350,25.665,30.450,4.13,49.47
2018-04-09 01:00,32.304,25.638,30.334,4.04,49.48
2018-04-09 02:00,32.305,25.637,30.355,4.06,48.59
2018-04-09 03:00,32.304,25.635,30.364,4.07,49.44
2018-04-09 04:00,32.309,25.638,30.373,4.08,49.62
2018-04-09 05:00,32.294,25.629,30.337,4.05,49.53
2018-04-09 06:00,32.302,25.638,30.323,4.03,50.01
2018-04-09 07:00,32.295,25.630,30.334,4.05,49.97
2018-04-09 08:00,32.375,25.662,30.665,4.36,50.10
2018-04-09 09:00,32.354,25.640,30.697,4.42,48.54
2018-04-09 10:00,32.313,25.633,30.441,4.16,49.97
2018-04-09 11:00,32.315,25.635,30.450,4.17,49.37
2018-04-09 12:00,32.291,25.630,30.300,4.01,49.03
2018-04-09 13:00,32.320,25.642,30.422,4.13,49.08
2018-04-09 14:00,32.289,25.630,30.288,4.00,49.02
2018-04-09 15:00,32.280,25.624,30.271,3.99,49.11
2018-04-09 16:00,32.286,25.628,30.283,4.00,49.52
2018-04-09 17:00,32.295,25.632,30.320,4.03,49.48
2018-04-09 18:00,32.288,25.630,30.286,4.00,49.99
2018-04-09 19:00,32.293,25.630,30.316,4.03,49.94
2018-04-09 20:00,32.299,25.627,30.386,4.11,49.59
2018-04-09 21:00,32.304,25.631,30.395,4.11,49.85
2018-04-09 22:00,32.318,25.631,30.497,4.22,49.86
2018-04-09 23:00,32.319,25.637,30.456,4.17,49.65
2018-04-10 00:00,32.346,25.638,30.655,4.38,50.29
2018-04-10 01:00,32.305,25.630,30.413,4.13,49.88
2018-04-10 02:00,32.309,25.628,30.452,4.18,49.79
2018-04-10 03:00,32.285,25.621,30.336,4.06,49.62
2018-04-10 04:00,32.311,25.632,30.437,4.16,49.52
2018-04-10 05:00,32.313,25.634,30.439,4.16,50.32
2018-04-10 06:00,32.310,25.630,30.447,4.17,50.55
2018-04-10 07:00,32.292,25.623,30.370,4.09,50.50
2018-04-10 08:00,32.292,25.627,30.340,4.06,50.48
2018-04-10 09:00,32.296,25.625,30.383,4.11,50.66
2018-04-10 10:00,32.312,25.626,30.501,4.23,50.22
2018-04-10 11:00,32.310,25.628,30.467,4.19,50.33
2018-04-10 12:00,32.311,25.628,30.476,4.20,50.58
2018-04-10 13:00,32.331,25.632,30.585,4.31,50.40
2018-04-10 14:00,32.324,25.631,30.549,4.28,50.52
2018-04-10 15:00,32.308,25.632,30.420,4.14,50.17
2018-04-10 16:00,32.311,25.635,30.410,4.12,50.63
2018-04-10 17:00,32.317,25.640,30.420,4.13,50.29
2018-04-10 18:00,32.325,25.643,30.448,4.15,50.35
2018-04-10 19:00,32.287,25.626,30.309,4.03,50.59
2018-04-10 20:00,32.285,25.622,30.328,4.05,50.17
2018-04-10 21:00,32.298,25.629,30.369,4.09,50.28
2018-04-10 22:00,32.295,25.625,30.377,4.10,50.21
2018-04-10 23:00,32.323,25.631,30.538,4.26,50.42
2018-04-11 00:00,32.344,25.641,30.612,4.33,50.44
2018-04-11 01:00,32.350,25.642,30.645,4.36,50.31
2018-04-11 02:00,32.293,25.626,30.358,4.08,50.47
2018-04-11 03:00,32.306,25.634,30.387,4.10,50.26
2018-04-11 04:00,32.332,25.648,30.460,4.16,50.28
2018-04-11 05:00,32.311,25.637,30.399,4.11,50.19
2018-04-11 06:00,32.321,25.642,30.434,4.14,50.30
2018-04-11 07:00,32.299,25.631,30.362,4.08,50.31
2018-04-11 08:00,32.290,25.618,30.403,4.14,50.21
2018-04-11 09:00,32.330,25.634,30.567,4.29,50.44
2018-04-11 10:00,32.316,25.632,30.474,4.19,50.32
2018-04-11 11:00,32.315,25.634,30.449,4.17,50.61
2018-04-11 12:00,32.381,25.666,30.683,4.38,50.45
2018-04-11 13:00,32.313,25.634,30.440,4.16,50.59
2018-04-11 14:00,32.316,25.635,30.450,4.17,50.41
2018-04-11 15:00,32.320,25.642,30.424,4.13,50.25
2018-04-11 16:00,32.359,25.660,30.559,4.25,50.57
2018-04-11 17:00,32.306,25.632,30.401,4.12,50.49
2018-04-11 18:00,32.344,25.651,30.523,4.22,50.44
2018-04-11 19:00,32.315,25.640,30.403,4.11,50.30
2018-04-11 20:00,32.312,25.639,30.385,4.09,49.99
2018-04-11 21:00,32.296,25.629,30.348,4.06,49.72
2018-04-11 22:00,32.299,25.631,30.358,4.07,49.65
2018-04-11 23:00,32.313,25.629,30.481,4.21,49.70
2018-04-12 00:00,32.316,25.635,30.454,4.17,49.73
2018-04-12 01:00,32.331,25.635,30.564,4.29,50.40
2018-04-12 02:00,32.313,25.633,30.446,4.16,50.12
2018-04-12 03:00,32.318,25.635,30.463,4.18,50.28
2018-04-12 04:00,32.344,25.652,30.520,4.22,50.00
2018-04-12 05:00,32.363,25.661,30.588,4.28,50.20
2018-04-12 06:00,32.323,25.642,30.448,4.16,50.32
2018-04-12 07:00,32.306,25.635,30.381,4.09,50.15
2018-04-12 08:00,32.320,25.642,30.425,4.13,50.35
2018-04-12 09:00,32.317,25.641,30.414,4.12,49.62
2018-04-12 10:00,32.310,25.637,30.388,4.10,50.34
2018-04-12 11:00,32.311,25.637,30.393,4.10,50.28
2018-04-12 12:00,32.328,25.638,30.517,4.23,50.23
2018-04-12 13:00,32.325,25.638,30.495,4.21,50.31
2018-04-12 14:00,32.324,25.633,30.527,4.25,50.47
2018-04-12 15:00,32.329,25.649,30.435,4.13,50.19
2018-04-12 16:00,32.354,25.659,30.539,4.23,49.91
2018-04-12 17:00,32.362,25.661,30.575,4.27,50.21
2018-04-12 18:00,32.335,25.650,30.473,4.17,49.94
2018-04-12 19:00,32.318,25.640,30.425,4.13,50.16
2018-04-12 20:00,32.322,25.641,30.445,4.15,50.29
2018-04-12 21:00,32.355,25.659,30.548,4.24,49.73
2018-04-12 22:00,32.293,25.628,30.334,4.05,49.75
2018-04-12 23:00,32.294,25.631,30.318,4.03,49.64
2018-04-13 00:00,32.339,25.651,30.487,4.19,50.17
2018-04-13 01:00,32.314,25.640,30.399,4.11,49.61
2018-04-13 02:00,32.355,25.660,30.539,4.23,50.16
2018-04-13 03:00,32.354,25.658,30.545,4.24,50.11
2018-04-13 04:00,32.328,25.643,30.477,4.19,50.22
2018-04-13 05:00,32.317,25.637,30.448,4.16,50.38
2018-04-13 06:00,32.310,25.636,30.405,4.12,49.66
2018-04-13 07:00,32.299,25.633,30.340,4.05,48.90
2018-04-13 08:00,32.290,25.636,30.246,3.95,49.04
2018-04-13 09:00,32.299,25.640,30.284,3.98,48.59
2018-04-13 10:00,32.323,25.645,30.423,4.13,48.37
2018-04-13 11:00,32.361,25.660,30.579,4.27,48.45
2018-04-13 12:00,32.343,25.650,30.524,4.23,49.79
2018-04-13 13:00,32.355,25.655,30.577,4.28,50.67
2018-04-13 14:00,32.350,25.653,30.555,4.26,49.15
2018-04-13 15:00,32.342,25.648,30.541,4.25,49.52